Time,TemperatureF,DewpointF,PressureIn,WindDirection,WindDirectionDegrees,WindSpeedMPH,WindSpeedGustMPH,Humidity,HourlyPrecipIn,Conditions,Clouds,dailyrainin,SoftwareType,DateUTC
2013-12-11 00:01:00,15.6,13.6,30.32,SSE,149,0.0,0.0,92,0.00,,,0.00,meteobridge,2013-12-11 06:01:00,
2013-12-11 00:07:00,15.6,13.6,30.32,SSE,150,0.0,0.0,92,0.00,,,0.00,meteobridge,2013-12-11 06:07:00,
2013-12-11 00:12:00,15.8,13.8,30.32,SSE,149,0.0,0.0,92,0.00,,,0.00,meteobridge,2013-12-11 06:12:00,
2013-12-11 00:17:00,15.8,13.8,30.32,SSE,150,0.0,0.0,92,0.00,,,0.00,meteobridge,2013-12-11 06:17:00,
2013-12-11 00:22:00,16.0,14.0,30.32,SSE,149,0.0,0.0,92,0.00,,,0.00,meteobridge,2013-12-11 06:22:00,
2013-12-11 00:27:00,16.0,14.0,30.32,SSE,150,0.0,0.0,92,0.00,,,0.00,meteobridge,2013-12-11 06:27:00,
2013-12-11 00:32:00,16.0,14.0,30.32,SSE,150,0.0,0.0,92,0.00,,,0.00,meteobridge,2013-12-11 06:32:00,
2013-12-11 00:37:00,16.0,14.0,30.32,SSE,149,0.0,0.0,92,0.00,,,0.00,meteobridge,2013-12-11 06:37:00,
2013-12-11 00:42:00,16.0,14.0,30.32,SSE,149,0.0,0.0,92,0.00,,,0.00,meteobridge,2013-12-11 06:42:00,
2013-12-11 00:47:00,16.0,14.0,30.32,SSE,150,0.0,0.0,92,0.00,,,0.00,meteobridge,2013-12-11 06:47:00,
2013-12-11 00:52:00,16.0,14.0,30.32,SSE,149,0.0,0.0,92,0.00,,,0.00,meteobridge,2013-12-11 06:52:00,
2013-12-11 00:58:00,16.0,14.0,30.32,SSE,150,0.0,0.0,92,0.00,,,0.00,meteobridge,2013-12-11 06:58:00,
2013-12-11 01:03:00,16.0,14.0,30.32,SSE,150,0.0,0.0,92,0.00,,,0.00,meteobridge,2013-12-11 07:03:00,
2013-12-11 01:08:00,16.0,14.0,30.32,SSE,149,0.0,0.0,92,0.00,,,0.00,meteobridge,2013-12-11 07:08:00,
2013-12-11 01:13:00,16.0,14.0,30.32,SSE,149,0.0,0.0,92,0.00,,,0.00,meteobridge,2013-12-11 07:13:00,
2013-12-11 01:18:00,16.2,14.2,30.32,SSE,150,0.0,0.0,92,0.00,,,0.00,meteobridge,2013-12-11 07:18:00,
2013-12-11 01:23:00,16.2,14.2,30.32,SSE,149,0.0,0.0,92,0.00,,,0.00,meteobridge,2013-12-11 07:23:00,
2013-12-11 01:28:00,16.2,14.2,30.33,SSE,149,0.0,0.0,92,0.00,,,0.00,meteobridge,2013-12-11 07:28:00,
2013-12-11 01:33:00,16.2,14.2,30.33,SSE,150,0.0,0.0,92,0.00,,,0.00,meteobridge,2013-12-11 07:33:00,
2013-12-11 01:38:00,16.3,14.4,30.33,SSE,149,0.0,0.0,92,0.00,,,0.00,meteobridge,2013-12-11 07:38:00,
2013-12-11 01:44:00,16.3,14.7,30.34,SSE,149,0.0,0.0,93,0.00,,,0.00,meteobridge,2013-12-11 07:44:00,
2013-12-11 01:49:00,16.3,14.7,30.34,SSE,150,0.0,0.0,93,0.00,,,0.00,meteobridge,2013-12-11 07:49:00,
2013-12-11 01:54:00,16.5,14.9,30.34,WSW,238,0.0,0.0,93,0.00,,,0.00,meteobridge,2013-12-11 07:54:00,
2013-12-11 01:59:00,16.5,14.9,30.34,WSW,239,0.0,0.0,93,0.00,,,0.00,meteobridge,2013-12-11 07:59:00,
2013-12-11 02:04:00,16.5,14.5,30.34,WSW,242,0.0,0.0,92,0.00,,,0.00,meteobridge,2013-12-11 08:04:00,
2013-12-11 02:09:00,16.5,14.5,30.34,WSW,243,0.0,0.0,92,0.00,,,0.00,meteobridge,2013-12-11 08:09:00,
2013-12-11 02:14:00,16.5,14.9,30.35,WSW,243,0.0,0.0,93,0.00,,,0.00,meteobridge,2013-12-11 08:14:00,
2013-12-11 02:19:00,16.5,14.5,30.35,NW,305,0.0,0.0,92,0.00,,,0.00,meteobridge,2013-12-11 08:19:00,
2013-12-11 02:24:00,16.7,14.7,30.36,WNW,300,0.0,0.0,92,0.00,,,0.00,meteobridge,2013-12-11 08:24:00,
2013-12-11 02:29:00,16.7,14.7,30.35,WNW,282,0.0,0.0,92,0.00,,,0.00,meteobridge,2013-12-11 08:29:00,
2013-12-11 02:34:00,16.7,14.7,30.36,NW,321,0.0,0.0,92,0.00,,,0.00,meteobridge,2013-12-11 08:34:00,
2013-12-11 02:39:00,16.9,14.9,30.36,WNW,294,2.0,2.0,92,0.00,,,0.00,meteobridge,2013-12-11 08:39:00,
2013-12-11 02:44:00,16.9,14.9,30.37,WSW,256,0.0,0.9,92,0.00,,,0.00,meteobridge,2013-12-11 08:44:00,
2013-12-11 02:49:00,17.1,15.1,30.37,NW,311,0.0,0.9,92,0.00,,,0.00,meteobridge,2013-12-11 08:49:00,
2013-12-11 02:54:00,17.1,15.1,30.37,North,356,0.0,0.0,92,0.00,,,0.00,meteobridge,2013-12-11 08:54:00,
2013-12-11 03:00:00,17.1,15.1,30.37,NW,326,0.9,2.0,92,0.00,,,0.00,meteobridge,2013-12-11 09:00:00,
2013-12-11 03:05:00,17.1,14.9,30.37,NW,304,0.0,2.0,91,0.00,,,0.00,meteobridge,2013-12-11 09:05:00,
2013-12-11 03:10:00,16.9,14.7,30.37,NW,314,0.0,0.9,91,0.00,,,0.00,meteobridge,2013-12-11 09:10:00,
2013-12-11 03:15:00,16.9,14.7,30.37,NW,315,0.0,0.9,91,0.00,,,0.00,meteobridge,2013-12-11 09:15:00,
2013-12-11 03:20:00,16.7,14.5,30.37,NW,313,0.0,0.9,91,0.00,,,0.00,meteobridge,2013-12-11 09:20:00,
2013-12-11 03:25:00,16.5,14.4,30.37,WNW,290,0.0,0.0,91,0.00,,,0.00,meteobridge,2013-12-11 09:25:00,
2013-12-11 03:30:00,16.3,14.2,30.37,NW,309,0.0,0.9,91,0.00,,,0.00,meteobridge,2013-12-11 09:30:00,
2013-12-11 03:35:00,16.3,14.2,30.37,NW,322,0.0,0.9,91,0.00,,,0.00,meteobridge,2013-12-11 09:35:00,
2013-12-11 03:40:00,16.3,14.2,30.38,NW,307,0.0,0.9,91,0.00,,,0.00,meteobridge,2013-12-11 09:40:00,
2013-12-11 03:45:00,16.5,14.4,30.38,NW,307,0.0,0.9,91,0.00,,,0.00,meteobridge,2013-12-11 09:45:00,
2013-12-11 03:50:00,16.5,14.2,30.38,NW,318,0.0,2.0,90,0.00,,,0.00,meteobridge,2013-12-11 09:50:00,
2013-12-11 03:56:00,16.5,14.2,30.39,NW,326,0.0,2.0,90,0.00,,,0.00,meteobridge,2013-12-11 09:56:00,
2013-12-11 04:01:00,16.5,14.2,30.39,NW,305,0.0,4.0,90,0.00,,,0.00,meteobridge,2013-12-11 10:01:00,
2013-12-11 04:06:00,16.5,14.2,30.39,WNW,297,0.0,0.9,90,0.00,,,0.00,meteobridge,2013-12-11 10:06:00,
2013-12-11 04:11:00,16.5,14.2,30.39,WNW,302,0.0,0.9,90,0.00,,,0.00,meteobridge,2013-12-11 10:11:00,
2013-12-11 04:16:00,16.5,14.2,30.39,WNW,297,0.9,2.0,90,0.00,,,0.00,meteobridge,2013-12-11 10:16:00,
2013-12-11 04:21:00,16.5,13.8,30.40,West,267,2.9,4.0,89,0.00,,,0.00,meteobridge,2013-12-11 10:21:00,
2013-12-11 04:26:00,16.5,13.8,30.40,NW,314,0.0,2.0,89,0.00,,,0.00,meteobridge,2013-12-11 10:26:00,
2013-12-11 04:31:00,16.3,13.6,30.40,NW,316,0.9,2.0,89,0.00,,,0.00,meteobridge,2013-12-11 10:31:00,
2013-12-11 04:36:00,16.3,13.5,30.40,North,352,2.9,8.1,88,0.00,,,0.00,meteobridge,2013-12-11 10:36:00,
2013-12-11 04:41:00,16.3,13.1,30.41,NNW,332,4.9,10.1,87,0.00,,,0.00,meteobridge,2013-12-11 10:41:00,
2013-12-11 04:46:00,15.3,11.3,30.41,WNW,302,6.9,8.9,84,0.00,,,0.00,meteobridge,2013-12-11 10:46:00,
2013-12-11 04:51:00,13.6,9.5,30.42,NW,325,6.9,10.1,83,0.00,,,0.00,meteobridge,2013-12-11 10:51:00,
2013-12-11 04:56:00,12.6,8.4,30.43,NW,323,6.9,8.1,83,0.00,,,0.00,meteobridge,2013-12-11 10:56:00,
2013-12-11 05:01:00,11.8,7.7,30.43,NW,315,8.1,8.9,83,0.00,,,0.00,meteobridge,2013-12-11 11:01:00,
2013-12-11 05:06:00,11.1,7.0,30.44,NW,311,8.1,13.0,83,0.00,,,0.00,meteobridge,2013-12-11 11:06:00,
2013-12-11 05:11:00,10.4,6.3,30.45,NW,325,4.9,14.1,83,0.00,,,0.00,meteobridge,2013-12-11 11:11:00,
2013-12-11 05:16:00,9.7,5.4,30.45,NNW,338,8.9,14.1,82,0.00,,,0.00,meteobridge,2013-12-11 11:16:00,
2013-12-11 05:21:00,9.0,4.3,30.45,North,352,2.0,8.1,81,0.00,,,0.00,meteobridge,2013-12-11 11:21:00,
2013-12-11 05:26:00,8.4,3.6,30.46,NW,315,0.9,10.1,80,0.00,,,0.00,meteobridge,2013-12-11 11:26:00,
2013-12-11 05:31:00,7.9,3.0,30.46,NW,322,6.0,10.1,80,0.00,,,0.00,meteobridge,2013-12-11 11:31:00,
2013-12-11 05:37:00,7.3,2.5,30.47,NNW,332,4.0,11.0,80,0.00,,,0.00,meteobridge,2013-12-11 11:37:00,
2013-12-11 05:42:00,7.0,1.9,30.47,NW,304,10.1,10.1,79,0.00,,,0.00,meteobridge,2013-12-11 11:42:00,
2013-12-11 05:47:00,6.6,1.6,30.48,NNE,19,2.9,8.9,79,0.00,,,0.00,meteobridge,2013-12-11 11:47:00,
2013-12-11 05:52:00,6.3,1.2,30.48,NW,323,2.9,6.9,79,0.00,,,0.00,meteobridge,2013-12-11 11:52:00,
2013-12-11 05:57:00,5.9,0.9,30.49,NW,321,13.0,13.0,79,0.00,,,0.00,meteobridge,2013-12-11 11:57:00,
2013-12-11 06:02:00,5.5,0.1,30.49,NW,317,2.9,10.1,78,0.00,,,0.00,meteobridge,2013-12-11 12:02:00,
2013-12-11 06:07:00,5.2,-0.4,30.49,NW,312,6.0,12.1,77,0.00,,,0.00,meteobridge,2013-12-11 12:07:00,
2013-12-11 06:12:00,4.6,-0.9,30.50,NW,311,4.0,8.9,77,0.00,,,0.00,meteobridge,2013-12-11 12:12:00,
2013-12-11 06:17:00,4.3,-1.3,30.50,NW,307,4.9,8.9,77,0.00,,,0.00,meteobridge,2013-12-11 12:17:00,
2013-12-11 06:22:00,3.9,-1.7,30.50,NNW,328,6.9,6.9,77,0.00,,,0.00,meteobridge,2013-12-11 12:22:00,
2013-12-11 06:27:00,3.6,-2.0,30.51,North,349,6.9,8.9,77,0.00,,,0.00,meteobridge,2013-12-11 12:27:00,
2013-12-11 06:32:00,3.4,-2.2,30.51,NNW,339,2.9,8.9,77,0.00,,,0.00,meteobridge,2013-12-11 12:32:00,
2013-12-11 06:37:00,3.0,-2.6,30.52,NW,310,2.0,6.0,77,0.00,,,0.00,meteobridge,2013-12-11 12:37:00,
2013-12-11 06:42:00,2.8,-2.7,30.52,NW,315,4.0,11.0,77,0.00,,,0.00,meteobridge,2013-12-11 12:42:00,
2013-12-11 06:47:00,2.5,-3.1,30.52,NW,321,6.0,8.9,77,0.00,,,0.00,meteobridge,2013-12-11 12:47:00,
2013-12-11 06:52:00,2.3,-3.3,30.53,NW,310,0.9,6.0,77,0.00,,,0.00,meteobridge,2013-12-11 12:52:00,
2013-12-11 06:57:00,2.1,-3.1,30.54,WNW,302,6.9,11.0,78,0.00,,,0.00,meteobridge,2013-12-11 12:57:00,
2013-12-11 07:02:00,1.9,-3.3,30.54,NNW,333,4.0,13.0,78,0.00,,,0.00,meteobridge,2013-12-11 13:02:00,
2013-12-11 07:07:00,1.6,-4.0,30.54,NW,310,6.0,10.1,77,0.00,,,0.00,meteobridge,2013-12-11 13:07:00,
2013-12-11 07:12:00,1.0,-4.5,30.55,NNW,340,4.9,8.9,77,0.00,,,0.00,meteobridge,2013-12-11 13:12:00,
2013-12-11 07:17:00,0.9,-4.7,30.55,NW,321,8.1,10.1,77,0.00,,,0.00,meteobridge,2013-12-11 13:17:00,
2013-12-11 07:22:00,0.7,-4.9,30.55,NW,315,4.9,8.9,77,0.00,,,0.00,meteobridge,2013-12-11 13:22:00,
2013-12-11 07:27:00,0.3,-5.3,30.56,NW,321,4.9,10.1,77,0.00,,,0.00,meteobridge,2013-12-11 13:27:00,
2013-12-11 07:32:00,0.1,-5.4,30.56,NW,323,4.9,10.1,77,0.00,,,0.00,meteobridge,2013-12-11 13:32:00,
2013-12-11 07:37:00,0.0,-5.4,30.56,NNW,347,2.9,8.1,77,0.00,,,0.00,meteobridge,2013-12-11 13:37:00,
2013-12-11 07:42:00,-0.2,-5.6,30.57,NNW,329,4.9,8.1,77,0.00,,,0.00,meteobridge,2013-12-11 13:42:00,
2013-12-11 07:47:00,-0.2,-5.6,30.57,NW,314,6.9,11.0,77,0.00,,,0.00,meteobridge,2013-12-11 13:47:00,
2013-12-11 07:52:00,-0.4,-6.2,30.57,NNE,15,8.1,12.1,76,0.00,,,0.00,meteobridge,2013-12-11 13:52:00,
2013-12-11 07:57:00,-0.4,-6.2,30.58,NW,314,6.0,12.1,76,0.00,,,0.00,meteobridge,2013-12-11 13:57:00,
2013-12-11 08:02:00,-0.4,-6.3,30.58,NW,305,4.0,8.1,75,0.00,,,0.00,meteobridge,2013-12-11 14:02:00,
2013-12-11 08:07:00,-0.2,-6.2,30.58,NW,326,6.9,10.1,75,0.00,,,0.00,meteobridge,2013-12-11 14:07:00,
2013-12-11 08:12:00,-0.2,-6.2,30.58,NW,321,4.0,8.9,75,0.00,,,0.00,meteobridge,2013-12-11 14:12:00,
2013-12-11 08:17:00,-0.2,-6.2,30.59,NE,44,4.9,10.1,75,0.00,,,0.00,meteobridge,2013-12-11 14:17:00,
2013-12-11 08:22:00,-0.2,-6.2,30.59,NW,319,4.9,10.1,75,0.00,,,0.00,meteobridge,2013-12-11 14:22:00,
2013-12-11 08:27:00,-0.2,-6.2,30.60,NW,309,8.1,8.9,75,0.00,,,0.00,meteobridge,2013-12-11 14:27:00,
2013-12-11 08:32:00,-0.2,-6.5,30.60,NW,314,6.9,15.0,74,0.00,,,0.00,meteobridge,2013-12-11 14:32:00,
2013-12-11 08:37:00,-0.2,-6.5,30.60,North,353,6.0,12.1,74,0.00,,,0.00,meteobridge,2013-12-11 14:37:00,
2013-12-11 08:42:00,0.0,-6.7,30.61,West,277,4.9,16.1,73,0.00,,,0.00,meteobridge,2013-12-11 14:42:00,
2013-12-11 08:47:00,-0.2,-7.1,30.61,West,281,4.0,11.0,72,0.00,,,0.00,meteobridge,2013-12-11 14:47:00,
2013-12-11 08:53:00,-0.2,-7.1,30.62,NW,323,6.0,11.0,72,0.00,,,0.00,meteobridge,2013-12-11 14:53:00,
2013-12-11 08:58:00,-0.2,-7.1,30.62,NNW,334,4.9,12.1,72,0.00,,,0.00,meteobridge,2013-12-11 14:58:00,
2013-12-11 09:03:00,0.0,-7.2,30.62,NNW,335,6.0,12.1,71,0.00,,,0.00,meteobridge,2013-12-11 15:03:00,
2013-12-11 09:08:00,0.0,-7.2,30.63,NNW,339,4.0,13.0,71,0.00,,,0.00,meteobridge,2013-12-11 15:08:00,
2013-12-11 09:13:00,0.0,-7.2,30.63,NNW,328,6.0,8.9,71,0.00,,,0.00,meteobridge,2013-12-11 15:13:00,
2013-12-11 09:18:00,0.0,-7.2,30.63,WNW,292,4.9,8.1,71,0.00,,,0.00,meteobridge,2013-12-11 15:18:00,
2013-12-11 09:23:00,0.0,-7.4,30.63,NW,317,10.1,10.1,70,0.00,,,0.00,meteobridge,2013-12-11 15:23:00,
2013-12-11 09:28:00,0.1,-7.2,30.63,NNW,333,0.9,8.9,70,0.00,,,0.00,meteobridge,2013-12-11 15:28:00,
2013-12-11 09:33:00,0.1,-7.2,30.63,WNW,301,2.9,11.0,70,0.00,,,0.00,meteobridge,2013-12-11 15:33:00,
2013-12-11 09:38:00,0.1,-7.2,30.64,WNW,290,0.9,6.9,70,0.00,,,0.00,meteobridge,2013-12-11 15:38:00,
2013-12-11 09:43:00,0.3,-7.4,30.64,NNW,346,6.9,11.0,69,0.00,,,0.00,meteobridge,2013-12-11 15:43:00,
2013-12-11 09:48:00,0.1,-7.6,30.65,West,276,6.9,10.1,69,0.00,,,0.00,meteobridge,2013-12-11 15:48:00,
2013-12-11 09:53:00,0.3,-7.8,30.65,NW,319,2.9,8.9,68,0.00,,,0.00,meteobridge,2013-12-11 15:53:00,
2013-12-11 09:58:00,0.3,-7.4,30.65,NW,309,4.9,6.0,69,0.00,,,0.00,meteobridge,2013-12-11 15:58:00,
2013-12-11 10:03:00,0.3,-7.8,30.65,NNW,339,6.0,11.0,68,0.00,,,0.00,meteobridge,2013-12-11 16:03:00,
2013-12-11 10:08:00,0.7,-7.1,30.65,NW,322,4.0,11.0,69,0.00,,,0.00,meteobridge,2013-12-11 16:08:00,
2013-12-11 10:13:00,0.7,-7.4,30.65,NW,325,8.9,11.0,68,0.00,,,0.00,meteobridge,2013-12-11 16:13:00,
2013-12-11 10:18:00,0.7,-7.4,30.65,WNW,297,6.0,13.0,68,0.00,,,0.00,meteobridge,2013-12-11 16:18:00,
2013-12-11 10:23:00,0.7,-7.4,30.66,NNW,342,4.9,10.1,68,0.00,,,0.00,meteobridge,2013-12-11 16:23:00,
2013-12-11 10:28:00,0.7,-7.4,30.66,NW,321,4.0,8.9,68,0.00,,,0.00,meteobridge,2013-12-11 16:28:00,
2013-12-11 10:33:00,0.9,-7.2,30.66,WNW,298,6.9,8.1,68,0.00,,,0.00,meteobridge,2013-12-11 16:33:00,
2013-12-11 10:38:00,1.0,-7.1,30.66,WNW,285,4.0,6.9,68,0.00,,,0.00,meteobridge,2013-12-11 16:38:00,
2013-12-11 10:43:00,1.2,-7.2,30.66,NW,310,6.9,11.0,67,0.00,,,0.00,meteobridge,2013-12-11 16:43:00,
2013-12-11 10:48:00,1.4,-7.2,30.66,NW,305,8.1,10.1,66,0.00,,,0.00,meteobridge,2013-12-11 16:48:00,
2013-12-11 10:54:00,1.6,-6.9,30.66,NW,314,4.0,6.9,67,0.00,,,0.00,meteobridge,2013-12-11 16:54:00,
2013-12-11 10:59:00,1.6,-7.1,30.66,NNW,328,8.1,8.9,66,0.00,,,0.00,meteobridge,2013-12-11 16:59:00,
2013-12-11 11:04:00,1.8,-6.9,30.66,NW,314,6.0,6.0,66,0.00,,,0.00,meteobridge,2013-12-11 17:04:00,
2013-12-11 11:09:00,1.8,-7.2,30.66,NNW,344,4.0,13.0,65,0.00,,,0.00,meteobridge,2013-12-11 17:09:00,
2013-12-11 11:14:00,1.8,-7.2,30.66,NNW,328,6.0,12.1,65,0.00,,,0.00,meteobridge,2013-12-11 17:14:00,
2013-12-11 11:19:00,1.9,-7.1,30.67,North,358,6.0,10.1,65,0.00,,,0.00,meteobridge,2013-12-11 17:19:00,
2013-12-11 11:24:00,1.9,-7.1,30.66,NW,319,4.0,8.1,65,0.00,,,0.00,meteobridge,2013-12-11 17:24:00,
2013-12-11 11:29:00,2.5,-6.3,30.66,NNW,343,6.0,8.1,66,0.00,,,0.00,meteobridge,2013-12-11 17:29:00,
2013-12-11 11:34:00,2.5,-6.5,30.66,NNW,343,2.9,6.0,65,0.00,,,0.00,meteobridge,2013-12-11 17:34:00,
2013-12-11 11:39:00,2.7,-6.3,30.66,NNW,332,4.9,6.0,65,0.00,,,0.00,meteobridge,2013-12-11 17:39:00,
2013-12-11 11:44:00,2.8,-6.2,30.66,NW,307,4.0,8.1,65,0.00,,,0.00,meteobridge,2013-12-11 17:44:00,
2013-12-11 11:49:00,2.8,-6.2,30.66,NW,309,6.0,6.0,65,0.00,,,0.00,meteobridge,2013-12-11 17:49:00,
2013-12-11 11:54:00,2.7,-6.3,30.66,NNW,337,4.0,8.1,65,0.00,,,0.00,meteobridge,2013-12-11 17:54:00,
2013-12-11 11:59:00,2.8,-6.0,30.66,NNW,328,6.0,6.0,66,0.00,,,0.00,meteobridge,2013-12-11 17:59:00,
2013-12-11 12:04:00,3.0,-6.3,30.66,West,278,4.0,8.1,64,0.00,,,0.00,meteobridge,2013-12-11 18:04:00,
2013-12-11 12:09:00,3.0,-6.2,30.66,NW,307,4.9,6.9,65,0.00,,,0.00,meteobridge,2013-12-11 18:09:00,
2013-12-11 12:14:00,3.2,-6.0,30.66,NW,319,0.9,6.9,65,0.00,,,0.00,meteobridge,2013-12-11 18:14:00,
2013-12-11 12:19:00,3.4,-5.8,30.65,NW,307,2.0,4.9,65,0.00,,,0.00,meteobridge,2013-12-11 18:19:00,
2013-12-11 12:25:00,3.7,-5.4,30.65,West,280,4.0,8.1,65,0.00,,,0.00,meteobridge,2013-12-11 18:25:00,
2013-12-11 12:30:00,3.6,-5.6,30.65,NNW,335,2.9,8.1,65,0.00,,,0.00,meteobridge,2013-12-11 18:30:00,
2013-12-11 12:35:00,3.6,-5.8,30.64,NNW,329,2.9,4.9,64,0.00,,,0.00,meteobridge,2013-12-11 18:35:00,
2013-12-11 12:40:00,3.7,-5.6,30.64,NW,316,2.9,4.9,64,0.00,,,0.00,meteobridge,2013-12-11 18:40:00,
2013-12-11 12:45:00,3.7,-5.4,30.64,NNW,332,4.0,6.0,65,0.00,,,0.00,meteobridge,2013-12-11 18:45:00,
2013-12-11 12:50:00,3.9,-5.3,30.64,NW,313,0.9,4.0,65,0.00,,,0.00,meteobridge,2013-12-11 18:50:00,
2013-12-11 12:55:00,3.9,-5.3,30.64,WNW,293,2.0,4.9,65,0.00,,,0.00,meteobridge,2013-12-11 18:55:00,
2013-12-11 13:00:00,3.9,-5.3,30.64,NW,320,2.0,4.9,65,0.00,,,0.00,meteobridge,2013-12-11 19:00:00,
2013-12-11 13:05:00,3.7,-5.1,30.64,WNW,302,2.0,8.1,66,0.00,,,0.00,meteobridge,2013-12-11 19:05:00,
2013-12-11 13:10:00,3.4,-5.1,30.64,WSW,239,8.9,8.9,67,0.00,,,0.00,meteobridge,2013-12-11 19:10:00,
2013-12-11 13:15:00,3.0,-5.1,30.64,NW,309,0.9,4.9,68,0.00,,,0.00,meteobridge,2013-12-11 19:15:00,
2013-12-11 13:20:00,3.0,-4.9,30.64,NW,322,2.9,6.0,69,0.00,,,0.00,meteobridge,2013-12-11 19:20:00,
2013-12-11 13:25:00,3.2,-4.7,30.64,NW,312,0.9,2.9,69,0.00,,,0.00,meteobridge,2013-12-11 19:25:00,
2013-12-11 13:30:00,3.0,-5.1,30.64,NW,318,4.9,6.0,68,0.00,,,0.00,meteobridge,2013-12-11 19:30:00,
2013-12-11 13:35:00,3.2,-4.7,30.64,WNW,293,2.0,6.0,69,0.00,,,0.00,meteobridge,2013-12-11 19:35:00,
2013-12-11 13:40:00,3.0,-5.1,30.64,NW,308,2.0,4.0,68,0.00,,,0.00,meteobridge,2013-12-11 19:40:00,
2013-12-11 13:45:00,3.4,-4.5,30.64,WSW,257,8.1,8.1,69,0.00,,,0.00,meteobridge,2013-12-11 19:45:00,
2013-12-11 13:51:00,3.0,-5.1,30.64,WSW,250,2.0,6.0,68,0.00,,,0.00,meteobridge,2013-12-11 19:51:00,
2013-12-11 13:56:00,3.0,-4.9,30.65,NW,307,6.0,6.9,69,0.00,,,0.00,meteobridge,2013-12-11 19:56:00,
2013-12-11 14:01:00,2.8,-5.1,30.65,WNW,296,2.0,8.9,69,0.00,,,0.00,meteobridge,2013-12-11 20:01:00,
2013-12-11 14:06:00,2.8,-5.1,30.64,NW,319,6.9,10.1,69,0.00,,,0.00,meteobridge,2013-12-11 20:06:00,
2013-12-11 14:11:00,3.0,-4.5,30.65,WSW,255,2.9,2.9,70,0.00,,,0.00,meteobridge,2013-12-11 20:11:00,
2013-12-11 14:16:00,3.0,-5.1,30.65,WNW,295,4.9,6.9,68,0.00,,,0.00,meteobridge,2013-12-11 20:16:00,
2013-12-11 14:21:00,3.2,-4.9,30.65,West,274,8.1,8.1,68,0.00,,,0.00,meteobridge,2013-12-11 20:21:00,
2013-12-11 14:26:00,3.4,-4.2,30.65,WNW,293,0.9,2.0,70,0.00,,,0.00,meteobridge,2013-12-11 20:26:00,
2013-12-11 14:31:00,3.2,-4.7,30.65,WSW,240,4.9,8.1,69,0.00,,,0.00,meteobridge,2013-12-11 20:31:00,
2013-12-11 14:36:00,2.8,-4.7,30.65,NW,317,0.9,6.9,70,0.00,,,0.00,meteobridge,2013-12-11 20:36:00,
2013-12-11 14:41:00,2.8,-4.7,30.65,WNW,284,6.9,6.9,70,0.00,,,0.00,meteobridge,2013-12-11 20:41:00,
2013-12-11 14:46:00,2.5,-5.1,30.65,West,276,2.0,6.9,70,0.00,,,0.00,meteobridge,2013-12-11 20:46:00,
2013-12-11 14:51:00,2.5,-5.1,30.66,NW,311,4.9,10.1,70,0.00,,,0.00,meteobridge,2013-12-11 20:51:00,
2013-12-11 14:56:00,2.1,-5.1,30.66,SW,236,4.9,4.9,71,0.00,,,0.00,meteobridge,2013-12-11 20:56:00,
2013-12-11 15:01:00,2.5,-4.7,30.66,WSW,256,2.0,6.9,71,0.00,,,0.00,meteobridge,2013-12-11 21:01:00,
2013-12-11 15:06:00,2.5,-5.1,30.66,WNW,285,4.9,11.0,70,0.00,,,0.00,meteobridge,2013-12-11 21:06:00,
2013-12-11 15:11:00,2.1,-5.4,30.66,West,262,4.0,8.9,70,0.00,,,0.00,meteobridge,2013-12-11 21:11:00,
2013-12-11 15:16:00,2.1,-5.1,30.66,WSW,250,2.9,8.9,71,0.00,,,0.00,meteobridge,2013-12-11 21:16:00,
2013-12-11 15:21:00,1.9,-5.3,30.66,WNW,300,6.9,8.1,71,0.00,,,0.00,meteobridge,2013-12-11 21:21:00,
2013-12-11 15:26:00,1.8,-5.4,30.66,WSW,254,2.0,10.1,71,0.00,,,0.00,meteobridge,2013-12-11 21:26:00,
2013-12-11 15:31:00,1.8,-5.3,30.66,WNW,293,0.9,8.9,72,0.00,,,0.00,meteobridge,2013-12-11 21:31:00,
2013-12-11 15:36:00,1.6,-5.3,30.66,WSW,257,0.9,6.9,72,0.00,,,0.00,meteobridge,2013-12-11 21:36:00,
2013-12-11 15:41:00,1.6,-5.1,30.66,WSW,238,4.9,4.9,73,0.00,,,0.00,meteobridge,2013-12-11 21:41:00,
2013-12-11 15:46:00,1.6,-5.1,30.66,WNW,296,0.9,6.0,73,0.00,,,0.00,meteobridge,2013-12-11 21:46:00,
2013-12-11 15:51:00,1.0,-5.6,30.67,WNW,297,4.0,8.1,73,0.00,,,0.00,meteobridge,2013-12-11 21:51:00,
2013-12-11 15:56:00,0.9,-5.4,30.66,WNW,295,4.0,4.0,74,0.00,,,0.00,meteobridge,2013-12-11 21:56:00,
2013-12-11 16:01:00,0.9,-5.4,30.67,WSW,252,6.0,8.1,74,0.00,,,0.00,meteobridge,2013-12-11 22:01:00,
2013-12-11 16:06:00,0.7,-5.6,30.67,WSW,255,4.9,8.1,74,0.00,,,0.00,meteobridge,2013-12-11 22:06:00,
2013-12-11 16:12:00,0.1,-6.0,30.68,West,264,0.0,6.0,75,0.00,,,0.00,meteobridge,2013-12-11 22:12:00,
2013-12-11 16:17:00,0.0,-5.8,30.68,WNW,302,0.9,6.9,76,0.00,,,0.00,meteobridge,2013-12-11 22:17:00,
2013-12-11 16:22:00,-0.2,-6.0,30.68,West,278,4.9,4.9,76,0.00,,,0.00,meteobridge,2013-12-11 22:22:00,
2013-12-11 16:27:00,-0.6,-6.0,30.68,WSW,249,0.9,6.9,77,0.00,,,0.00,meteobridge,2013-12-11 22:27:00,
2013-12-11 16:32:00,-0.8,-6.2,30.68,WSW,248,2.0,4.9,77,0.00,,,0.00,meteobridge,2013-12-11 22:32:00,
2013-12-11 16:37:00,-0.9,-6.2,30.68,WNW,288,2.9,6.9,78,0.00,,,0.00,meteobridge,2013-12-11 22:37:00,
2013-12-11 16:42:00,-0.9,-6.2,30.68,WSW,245,6.9,8.1,78,0.00,,,0.00,meteobridge,2013-12-11 22:42:00,
2013-12-11 16:47:00,-1.1,-6.3,30.68,NW,312,0.9,2.9,78,0.00,,,0.00,meteobridge,2013-12-11 22:47:00,
2013-12-11 16:52:00,-1.1,-6.3,30.68,West,263,0.9,2.9,78,0.00,,,0.00,meteobridge,2013-12-11 22:52:00,
2013-12-11 16:57:00,-1.5,-6.7,30.68,NW,317,0.9,8.1,78,0.00,,,0.00,meteobridge,2013-12-11 22:57:00,
2013-12-11 17:02:00,-1.5,-6.7,30.68,WNW,293,2.0,6.9,78,0.00,,,0.00,meteobridge,2013-12-11 23:02:00,
2013-12-11 17:07:00,-1.7,-6.5,30.68,NW,314,0.9,4.0,79,0.00,,,0.00,meteobridge,2013-12-11 23:07:00,
2013-12-11 17:12:00,-1.7,-6.5,30.68,West,263,0.9,2.9,79,0.00,,,0.00,meteobridge,2013-12-11 23:12:00,
2013-12-11 17:17:00,-1.7,-6.5,30.68,WNW,288,2.0,4.9,79,0.00,,,0.00,meteobridge,2013-12-11 23:17:00,
2013-12-11 17:22:00,-1.7,-6.5,30.68,WNW,290,0.9,2.9,79,0.00,,,0.00,meteobridge,2013-12-11 23:22:00,
2013-12-11 17:27:00,-1.8,-6.7,30.67,NW,307,0.9,2.9,79,0.00,,,0.00,meteobridge,2013-12-11 23:27:00,
2013-12-11 17:32:00,-2.0,-6.9,30.67,NW,307,0.0,2.0,79,0.00,,,0.00,meteobridge,2013-12-11 23:32:00,
2013-12-11 17:37:00,-2.2,-7.1,30.68,NW,318,0.0,2.0,79,0.00,,,0.00,meteobridge,2013-12-11 23:37:00,
2013-12-11 17:42:00,-2.4,-7.1,30.68,NW,304,0.0,2.9,80,0.00,,,0.00,meteobridge,2013-12-11 23:42:00,
2013-12-11 17:48:00,-2.4,-7.1,30.67,NW,310,0.9,2.9,80,0.00,,,0.00,meteobridge,2013-12-11 23:48:00,
2013-12-11 17:53:00,-2.4,-7.1,30.67,WNW,297,0.9,2.9,80,0.00,,,0.00,meteobridge,2013-12-11 23:53:00,
2013-12-11 17:58:00,-2.6,-7.2,30.66,NW,321,0.0,2.0,80,0.00,,,0.00,meteobridge,2013-12-11 23:58:00,
2013-12-11 18:03:00,-2.6,-7.2,30.66,NW,326,0.9,6.0,80,0.00,,,0.00,meteobridge,2013-12-12 00:03:00,
2013-12-11 18:08:00,-2.4,-7.2,30.66,West,274,2.9,6.0,79,0.00,,,0.00,meteobridge,2013-12-12 00:08:00,
2013-12-11 18:13:00,-2.4,-7.2,30.66,NW,317,2.0,4.9,79,0.00,,,0.00,meteobridge,2013-12-12 00:13:00,
2013-12-11 18:18:00,-2.4,-7.6,30.66,West,281,0.0,2.0,78,0.00,,,0.00,meteobridge,2013-12-12 00:18:00,
2013-12-11 18:23:00,-2.4,-7.2,30.66,WSW,250,2.0,2.9,79,0.00,,,0.00,meteobridge,2013-12-12 00:23:00,
2013-12-11 18:28:00,-2.6,-7.4,30.66,SW,225,0.0,2.9,79,0.00,,,0.00,meteobridge,2013-12-12 00:28:00,
2013-12-11 18:33:00,-2.7,-7.6,30.66,WSW,257,0.9,2.0,79,0.00,,,0.00,meteobridge,2013-12-12 00:33:00,
2013-12-11 18:38:00,-3.3,-8.1,30.67,West,274,0.0,0.9,79,0.00,,,0.00,meteobridge,2013-12-12 00:38:00,
2013-12-11 18:43:00,-3.3,-8.1,30.67,West,263,2.0,2.9,79,0.00,,,0.00,meteobridge,2013-12-12 00:43:00,
2013-12-11 18:48:00,-3.5,-8.3,30.67,WSW,248,2.0,4.0,79,0.00,,,0.00,meteobridge,2013-12-12 00:48:00,
2013-12-11 18:53:00,-3.5,-8.3,30.67,WSW,250,2.0,2.0,79,0.00,,,0.00,meteobridge,2013-12-12 00:53:00,
2013-12-11 18:58:00,-3.6,-8.3,30.67,WSW,252,0.9,2.9,80,0.00,,,0.00,meteobridge,2013-12-12 00:58:00,
2013-12-11 19:04:00,-3.8,-8.5,30.66,SW,217,2.0,4.0,80,0.00,,,0.00,meteobridge,2013-12-12 01:04:00,
2013-12-11 19:08:00,-4.0,-8.7,30.66,WSW,256,0.0,0.9,80,0.00,,,0.00,meteobridge,2013-12-12 01:08:00,
2013-12-11 19:14:00,-4.2,-8.9,30.66,West,262,0.0,0.0,80,0.00,,,0.00,meteobridge,2013-12-12 01:14:00,
2013-12-11 19:19:00,-4.2,-8.5,30.66,West,273,0.9,0.9,81,0.00,,,0.00,meteobridge,2013-12-12 01:19:00,
2013-12-11 19:24:00,-4.0,-8.3,30.66,WNW,287,0.9,2.0,81,0.00,,,0.00,meteobridge,2013-12-12 01:24:00,
2013-12-11 19:29:00,-3.8,-8.1,30.66,SW,228,0.0,2.0,81,0.00,,,0.00,meteobridge,2013-12-12 01:29:00,
2013-12-11 19:34:00,-3.8,-8.1,30.66,West,278,0.9,2.0,81,0.00,,,0.00,meteobridge,2013-12-12 01:34:00,
2013-12-11 19:39:00,-3.8,-8.1,30.66,WSW,250,0.0,0.9,81,0.00,,,0.00,meteobridge,2013-12-12 01:39:00,
2013-12-11 19:44:00,-4.0,-8.3,30.66,West,264,0.9,2.0,81,0.00,,,0.00,meteobridge,2013-12-12 01:44:00,
2013-12-11 19:49:00,-4.0,-8.3,30.66,West,263,0.0,2.0,81,0.00,,,0.00,meteobridge,2013-12-12 01:49:00,
2013-12-11 19:54:00,-4.0,-8.3,30.65,SW,222,0.9,0.9,81,0.00,,,0.00,meteobridge,2013-12-12 01:54:00,
2013-12-11 19:59:00,-3.8,-8.1,30.65,WSW,257,0.9,0.9,81,0.00,,,0.00,meteobridge,2013-12-12 01:59:00,
2013-12-11 20:04:00,-3.8,-8.1,30.65,WSW,249,0.0,2.0,81,0.00,,,0.00,meteobridge,2013-12-12 02:04:00,
2013-12-11 20:10:00,-3.8,-8.1,30.65,West,266,0.0,0.0,81,0.00,,,0.00,meteobridge,2013-12-12 02:10:00,
2013-12-11 20:15:00,-3.8,-8.1,30.65,WSW,248,0.0,2.0,81,0.00,,,0.00,meteobridge,2013-12-12 02:15:00,
2013-12-11 20:20:00,-3.6,-7.8,30.65,WSW,245,0.0,0.0,82,0.00,,,0.00,meteobridge,2013-12-12 02:20:00,
2013-12-11 20:26:00,-3.6,-7.8,30.65,West,277,0.9,2.0,82,0.00,,,0.00,meteobridge,2013-12-12 02:26:00,
2013-12-11 20:31:00,-3.6,-7.8,30.65,West,260,0.0,2.0,82,0.00,,,0.00,meteobridge,2013-12-12 02:31:00,
2013-12-11 20:36:00,-3.6,-7.8,30.65,NW,307,0.0,2.0,82,0.00,,,0.00,meteobridge,2013-12-12 02:36:00,
2013-12-11 20:41:00,-3.5,-7.8,30.64,WSW,257,0.9,2.0,81,0.00,,,0.00,meteobridge,2013-12-12 02:41:00,
2013-12-11 20:46:00,-2.9,-7.1,30.64,SSW,204,0.0,0.9,82,0.00,,,0.00,meteobridge,2013-12-12 02:46:00,
2013-12-11 20:51:00,-2.7,-6.9,30.63,SSW,205,0.0,0.0,82,0.00,,,0.00,meteobridge,2013-12-12 02:51:00,
2013-12-11 20:56:00,-2.6,-6.7,30.63,South,183,2.0,2.0,82,0.00,,,0.00,meteobridge,2013-12-12 02:56:00,
2013-12-11 21:01:00,-2.6,-6.9,30.63,SSW,211,0.0,0.9,81,0.00,,,0.00,meteobridge,2013-12-12 03:01:00,
2013-12-11 21:06:00,-2.2,-6.3,30.63,West,276,0.0,2.9,82,0.00,,,0.00,meteobridge,2013-12-12 03:06:00,
2013-12-11 21:11:00,-1.8,-6.0,30.62,SSW,210,0.0,0.9,82,0.00,,,0.00,meteobridge,2013-12-12 03:11:00,
2013-12-11 21:16:00,-1.7,-6.0,30.62,SSE,167,0.9,0.9,81,0.00,,,0.00,meteobridge,2013-12-12 03:16:00,
2013-12-11 21:21:00,-1.7,-6.0,30.62,South,190,0.9,2.0,81,0.00,,,0.00,meteobridge,2013-12-12 03:21:00,
2013-12-11 21:26:00,-1.5,-5.8,30.61,SSW,208,0.0,2.0,81,0.00,,,0.00,meteobridge,2013-12-12 03:26:00,
2013-12-11 21:31:00,-1.5,-5.8,30.61,SSW,198,0.9,0.9,81,0.00,,,0.00,meteobridge,2013-12-12 03:31:00,
2013-12-11 21:37:00,-1.1,-5.6,30.61,South,190,0.9,2.0,81,0.00,,,0.00,meteobridge,2013-12-12 03:37:00,
2013-12-11 21:42:00,-1.1,-5.6,30.62,SSW,196,2.9,4.0,81,0.00,,,0.00,meteobridge,2013-12-12 03:42:00,
2013-12-11 21:47:00,-0.8,-5.3,30.61,SW,233,0.0,2.9,81,0.00,,,0.00,meteobridge,2013-12-12 03:47:00,
2013-12-11 21:52:00,-0.8,-5.3,30.61,SSE,155,0.0,0.9,81,0.00,,,0.00,meteobridge,2013-12-12 03:52:00,
2013-12-11 21:57:00,-0.9,-5.6,30.61,SE,143,0.0,0.9,80,0.00,,,0.00,meteobridge,2013-12-12 03:57:00,
2013-12-11 22:02:00,-1.1,-5.8,30.60,SSE,156,0.0,0.9,80,0.00,,,0.00,meteobridge,2013-12-12 04:02:00,
2013-12-11 22:07:00,-1.1,-5.6,30.60,SW,226,0.9,2.0,81,0.00,,,0.00,meteobridge,2013-12-12 04:07:00,
2013-12-11 22:12:00,-0.9,-5.4,30.61,SSW,211,0.9,2.0,81,0.00,,,0.00,meteobridge,2013-12-12 04:12:00,
2013-12-11 22:18:00,-0.6,-5.1,30.61,SSE,161,0.0,4.0,81,0.00,,,0.00,meteobridge,2013-12-12 04:18:00,
2013-12-11 22:23:00,-0.8,-5.4,30.60,SSW,194,0.9,2.9,80,0.00,,,0.00,meteobridge,2013-12-12 04:23:00,
2013-12-11 22:28:00,-0.8,-5.4,30.60,South,177,2.0,4.9,80,0.00,,,0.00,meteobridge,2013-12-12 04:28:00,
2013-12-11 22:33:00,-0.9,-5.6,30.60,South,170,0.9,2.0,80,0.00,,,0.00,meteobridge,2013-12-12 04:33:00,
2013-12-11 22:38:00,-0.9,-5.6,30.61,WSW,245,2.0,2.9,80,0.00,,,0.00,meteobridge,2013-12-12 04:38:00,
2013-12-11 22:43:00,-0.9,-5.6,30.61,SSW,201,0.9,0.9,80,0.00,,,0.00,meteobridge,2013-12-12 04:43:00,
2013-12-11 22:48:00,-0.9,-5.6,30.61,West,281,0.0,2.9,80,0.00,,,0.00,meteobridge,2013-12-12 04:48:00,
2013-12-11 22:53:00,-1.1,-5.8,30.60,SSE,155,0.0,2.0,80,0.00,,,0.00,meteobridge,2013-12-12 04:53:00,
2013-12-11 22:58:00,-1.7,-6.3,30.60,WSW,239,2.0,4.9,80,0.00,,,0.00,meteobridge,2013-12-12 04:58:00,
2013-12-11 23:01:00,-1.8,-6.5,30.60,SSW,195,0.0,2.9,80,0.00,,,0.00,meteobridge,2013-12-12 05:01:00,
2013-12-11 23:02:00,-1.8,-6.5,30.60,West,273,4.9,4.9,80,0.00,,,0.00,meteobridge,2013-12-12 05:02:00,
2013-12-11 23:07:00,-2.0,-6.3,30.61,South,180,2.0,6.0,81,0.00,,,0.00,meteobridge,2013-12-12 05:07:00,
2013-12-11 23:12:00,-2.0,-6.3,30.61,SSW,211,2.9,2.9,81,0.00,,,0.00,meteobridge,2013-12-12 05:12:00,
2013-12-11 23:17:00,-2.0,-6.3,30.60,SW,217,0.0,2.9,81,0.00,,,0.00,meteobridge,2013-12-12 05:17:00,
2013-12-11 23:22:00,-2.0,-6.3,30.61,SSW,211,2.0,4.0,81,0.00,,,0.00,meteobridge,2013-12-12 05:22:00,
2013-12-11 23:27:00,-1.8,-6.2,30.61,SSW,211,0.9,4.9,81,0.00,,,0.00,meteobridge,2013-12-12 05:27:00,
2013-12-11 23:32:00,-1.8,-6.0,30.62,SSW,201,0.9,4.0,82,0.00,,,0.00,meteobridge,2013-12-12 05:32:00,
2013-12-11 23:38:00,-1.8,-6.2,30.62,SSE,160,2.9,4.9,81,0.00,,,0.00,meteobridge,2013-12-12 05:38:00,
2013-12-11 23:43:00,-2.0,-6.3,30.61,SSW,205,0.9,2.9,81,0.00,,,0.00,meteobridge,2013-12-12 05:43:00,
2013-12-11 23:48:00,-2.2,-6.5,30.60,SSE,149,0.0,4.0,81,0.00,,,0.00,meteobridge,2013-12-12 05:48:00,
2013-12-11 23:53:00,-2.7,-7.4,30.60,SSE,164,0.0,0.9,80,0.00,,,0.00,meteobridge,2013-12-12 05:53:00,
2013-12-11 23:58:00,-3.1,-7.4,30.60,South,186,0.9,0.9,81,0.00,,,0.00,meteobridge,2013-12-12 05:58:00,